ARIANE 5 DEB (SYLDA), 41594

Orbit data source: Space-Track

ARIANE 5 DEB (SYLDA), 41594 is space debris in HEO originally from a launch on Sat, 18 Jun 2016 UTC launched from the French Guiana (FRGUI). Debris objects in space refer to the collection of defunct objects orbiting the Earth. Examples of debris include non-operational satellites, rocket bodies, and fragments generated from explosions, collisions, or faulty payload assembly.

Loading next visibility...
Identifier
41594, 2016-039D
Orbit
HEO
Country
Flag of FRFR
Related business
Manufacturer
ADS/Bremen
Mission
Spacecraft
Bus & Motor
SYLDA 5, Unknown motor
Mass
440 kg wet, 440 kg dry
Launch date (UTC)
2016-06-18 (9 years ago)
Launch vehicle
Unknown
Launch site
French Guiana (FRGUI)
Object type
Payload
Rocket body
Debris
Shape & HBR
Cyl, 2.8 m
Radar Cross Section
27.391 m², Large (>1 m²)

Expand to show TLE details & history
Last TLE update: 11 hours ago

TLE from 11 hours ago
0 ARIANE 5 DEB (SYLDA)
1 41594U 16039D   25310.92035778  .00002051  00000-0  20963-2 0  9994
2 41594   5.9704 122.9315 5691047  13.0624 357.0398  4.38399130106799
Epoch: 2025-11-06T22:05Z
TLE epoch observation values (Epoch: 2025-11-06T22:05:18.912Z)
Latitude
0.00007°
Longitude
105.22244°
Altitude
488.944 km
Speed
9.529 km/s
True Right ascension
08h 11m 41s
True Declination
0° 00' 00"
Sunlit
Object was in daylight at epoch
Visualization orbit readout
Latitude
Unknown
Longitude
Unknown
Altitude
Unknown
Speed
Unknown
Apparent Right ascension
Unknown
Apparent Declination
Unknown
Sunlit
N/A
Visualization observer readout
Local Sidereal Time
05:42:02
Azimuth
Unknown
Elevation
Unknown
Doppler factor
Unknown
Orbital elements
Apogee altitude
18,373.866 km
Perigee altitude
419.065 km
Semi-major axis
15,774.603 km
Eccentricity
0.5691
Inclination
5.9704°
RAAN
122.9315°
Arg. of periapsis
13.0624°
True anomaly
346.97231°
Mean anomaly
357.0398°
Eccentric anomaly
353.15164°
Mean motion
1.09548 °/min
Orbital period
328.62 mins
BSTAR
0.0020963
Loading maneuver chart data...
Computing Atmospheric mass density...
Loading historical data...
Loading historical data...
Loading historical data...
Loading historical data...
Loading historical data...
Loading historical data...
Loading historical data...
Other satellites on launch #39 in the year 2016 (2016-06-18 UTC)

Documentation

Showing up to 5 results
|